Temperature
23 22 21 21 21 20 20 20 19 19 19 19 19 19 19 19 19 19 18 18 18 18 18 18 18 18 18 18 18 18 18 18 18 18 19 19 19 19 19 19 19 19 18
24 22 22 21 21 21 20 20 20 19 19 19 19 19 19 19 19 19 18 19 18 18 18 18 18 18 18 18 18 18 18 18 18 18 19 19 20 19 19 19 18 18 18
24 23 22 22 21 21 20 20 20 20 20 19 19 19 19 19 19 19 19 19 18 18 18 18 18 18 18 18 18 18 18 18 18 18 19 19 20 20 19 19 18 18 18
24 23 22 22 22 21 21 20 20 20 20 20 19 19 19 19 19 19 19 18 18 18 18 18 18 18 18 18 18 18 18 18 18 18 18 18 19 19 19 19 19 18 18
25 24 23 22 22 21 21 21 20 20 20 20 20 19 19 19 19 19 19 19 18 18 18 18 18 18 18 18 18 18 18 18 18 18 18 18 18 18 19 19 19 18 18
25 24 23 22 22 21 21 21 20 20 20 20 19 19 19 19 19 19 19 19 19 18 18 18 18 18 18 18 18 18 18 18 18 18 18 18 18 18 18 19 18 18 18
25 24 23 22 22 21 21 21 20 20 20 20 19 19 19 19 19 19 18 18 18 18 18 18 18 18 18 18 18 18 18 17 17 17 17 18 18 18 18 18 18 18 18
25 24 23 23 22 21 21 21 20 20 20 20 20 19 19 19 18 18 18 18 18 18 18 18 18 18 18 18 18 17 17 17 17 17 17 17 17 17 17 17 18 18 18
25 24 23 23 22 22 21 21 20 20 20 20 19 19 19 19 19 18 18 18 18 18 18 18 18 18 18 18 18 17 17 17 17 17 17 17 17 17 17 17 17 18 18
25 24 23 23 22 22 21 21 20 20 20 19 19 19 19 19 19 18 18 18 18 18 18 18 17 17 17 17 17 17 17 17 17 17 17 17 17 17 17 17 17 17 17
25 24 23 23 22 22 21 21 20 20 20 19 19 19 19 19 19 18 18 18 18 18 18 18 17 17 17 17 17 17 17 17 16 16 16 16 16 16 16 16 16 16 16
25 24 23 23 22 22 21 21 20 20 20 19 19 19 19 18 18 18 18 18 18 18 18 17 17 17 17 17 17 16 16 16 16 16 16 16 16 16 16 16 16 16 16
24 24 23 22 22 21 21 20 20 20 20 19 19 19 19 18 18 18 18 18 18 18 17 17 17 17 17 16 16 16 16 16 16 16 15 15 15 15 15 15 15 15 16
23 23 23 22 21 21 20 20 20 19 19 19 19 19 19 18 18 18 18 18 18 17 17 17 17 17 16 16 16 16 16 16 15 15 15 15 15 15 15 15 15 15 15
23 22 22 21 21 20 20 20 20 19 19 19 19 18 18 18 18 18 18 18 17 17 17 17 17 16 16 16 16 16 15 15 15 15 15 15 15 15 15 15 14 14 15
23 22 22 21 20 20 20 19 19 19 19 19 18 18 18 18 18 18 17 17 17 17 16 16 16 16 16 16 16 15 15 15 15 14 15 15 14 14 14 15 14 14 14
22 22 21 21 20 20 20 19 19 19 19 19 18 18 18 18 18 17 17 17 17 16 16 16 16 16 16 16 16 15 15 14 14 14 14 14 14 14 14 14 14 14 14
22 21 21 20 20 20 20 19 19 19 18 18 18 18 17 17 17 17 17 16 16 16 16 16 15 15 15 15 15 15 15 14 14 14 14 13 14 13 13 13 13 13 13
21 20 20 20 19 19 19 19 18 18 18 18 17 17 17 17 17 16 16 16 16 16 15 15 15 15 15 15 15 14 14 14 14 13 13 13 13 13 13 13 12 12 13
20 20 20 19 19 18 18 18 18 18 17 17 17 17 17 17 16 16 16 16 16 15 15 15 15 15 15 15 14 14 14 14 13 13 13 13 13 13 13 12 12 12 12
19 19 19 18 18 18 18 18 18 17 17 17 17 17 17 16 16 16 16 16 15 15 15 15 15 15 14 14 14 14 13 13 13 13 13 13 13 12 12 12 12 12 12
18 18 18 18 18 18 18 17 17 17 17 16 16 16 16 16 16 16 15 15 15 15 15 15 14 14 14 14 14 13 13 13 12 12 12 12 12 12 12 12 12 12 11
17 17 17 17 17 17 17 17 17 17 16 16 16 16 15 15 15 15 15 15 15 15 15 14 14 14 13 13 13 13 13 12 12 12 12 12 12 11 11 11 11 11 11
17 17 17 17 17 17 17 17 17 16 16 16 15 15 15 15 15 15 14 14 14 14 14 14 14 13 13 12 12 12 12 12 12 11 11 11 11 11 11 11 11 11 11
16 16 16 16 16 16 16 16 16 16 15 15 15 15 15 14 14 14 14 14 14 14 14 13 13 13 12 12 12 12 11 11 11 11 11 11 11 11 11 11 10 10 10
16 16 16 16 16 16 16 16 16 15 15 15 15 15 15 14 14 14 14 14 13 13 13 13 13 12 12 12 12 11 11 11 11 10 10 11 11 11 11 11 10 10 10
Wind_Speed
11 11 11 11 10 10 10 10 10 9 8 6 6 6 5 5 4 4 4 4 4 4 4 3 2 3 3 3 4 3 3 3 3 3 3 3 4 3 3 3 3 3 3
11 11 11 12 12 11 11 10 10 10 9 7 6 5 4 4 4 3 3 4 4 4 4 3 3 3 3 3 3 3 3 3 3 3 3 2 3 4 3 3 3 3 3
11 12 12 12 12 12 11 10 10 10 10 8 7 5 4 5 5 4 3 3 4 4 3 3 3 3 4 3 3 4 4 3 3 3 3 3 2 2 3 3 3 3 3
11 11 12 12 11 11 11 11 10 10 9 9 8 8 7 6 5 4 3 3 3 3 3 3 3 4 3 3 4 2 3 4 4 3 3 4 3 3 2 3 2 3 3
11 11 11 11 10 10 9 9 9 9 9 9 9 8 8 6 4 4 3 3 2 2 2 2 2 3 3 3 3 2 3 3 4 3 3 3 3 5 4 3 3 3 3
9 9 10 10 9 9 9 9 9 9 9 9 8 8 7 6 5 4 3 3 2 2 2 1 2 2 2 2 3 2 2 2 3 3 3 3 3 3 3 4 4 3 3
10 10 11 10 10 10 10 9 9 9 9 9 8 8 7 6 6 5 4 4 3 2 2 2 1 2 2 2 2 2 2 2 3 4 3 3 3 4 4 4 5 4 3
9 10 10 11 10 11 10 10 10 9 9 9 8 7 6 6 5 5 3 3 3 2 1 2 2 2 2 2 2 2 2 2 3 3 3 3 3 3 4 4 4 5 4
8 9 9 10 11 10 10 10 10 9 8 7 7 6 6 5 5 4 4 3 3 2 2 2 2 2 2 2 3 2 2 2 3 3 3 3 3 3 3 4 5 5 5
7 8 8 9 10 10 10 10 10 10 9 8 7 6 6 6 5 5 5 4 3 2 3 3 3 3 2 2 2 2 2 3 3 3 3 4 3 3 3 4 4 5 6
6 6 7 7 9 9 9 9 10 9 9 8 7 6 6 7 6 6 5 4 4 3 3 3 3 3 3 2 2 3 2 3 3 3 3 3 4 4 3 3 4 4 4
5 5 6 7 8 9 9 9 9 9 9 8 7 7 7 7 7 6 5 5 5 4 4 4 4 4 3 3 3 3 2 3 4 4 4 4 3 3 4 4 4 4 4
4 5 6 6 7 8 9 9 9 9 9 8 8 7 7 7 6 6 5 5 5 5 5 5 4 4 3 3 3 3 3 3 3 4 4 4 4 4 4 4 4 5 4
5 5 5 5 6 7 8 8 8 8 8 8 8 7 7 6 6 5 5 5 4 5 5 5 5 4 4 4 3 2 2 2 3 3 3 4 4 5 5 4 5 5 5
5 5 5 5 6 7 7 7 7 7 8 8 8 7 7 6 5 5 5 4 4 5 4 5 4 4 4 3 2 2 2 2 3 3 3 3 2 3 4 5 4 5 5
5 5 6 6 6 7 7 8 8 8 8 8 8 7 7 6 6 5 5 4 4 4 4 4 4 4 2 3 1 2 2 2 3 3 3 3 3 3 4 3 4 5 6
4 5 5 6 6 7 7 8 8 8 8 8 8 8 7 7 6 6 5 5 5 5 4 4 4 4 2 4 2 2 3 3 3 3 3 4 2 2 3 3 5 5 5
3 4 4 5 5 6 7 7 7 8 8 8 8 8 8 7 7 6 6 5 5 4 4 4 4 3 3 4 3 3 4 4 4 3 3 4 4 4 4 5 4 5 4
3 3 3 3 4 4 5 6 7 8 8 8 8 8 8 7 7 6 6 5 4 4 5 4 5 5 4 4 3 4 4 4 4 4 3 4 4 3 4 5 5 5 5
1 2 2 2 3 4 5 6 7 7 8 8 8 8 8 7 7 6 6 5 4 4 4 4 5 5 4 4 4 5 5 4 4 4 4 2 2 2 3 4 5 5 5
0 1 1 2 2 3 4 5 5 6 7 7 7 7 7 7 7 6 5 5 5 4 4 4 5 5 4 5 5 5 5 4 5 4 3 1 3 1 3 6 5 5 6
1 1 1 1 2 3 3 4 5 4 5 5 6 6 6 6 5 6 5 5 5 5 5 5 5 4 4 3 4 5 6 6 5 4 3 1 3 2 4 4 4 6 7
1 1 1 1 2 3 3 4 4 4 5 5 6 6 6 5 5 5 5 5 4 5 4 4 4 4 3 4 6 7 6 5 4 3 1 1 3 5 5 5 6 7 5
1 1 2 2 2 3 3 3 3 4 5 5 5 5 5 5 4 4 4 4 4 4 4 4 3 3 3 3 3 4 4 5 5 3 3 6 8 7 4 4 5 4 4
1 1 2 2 2 2 2 2 3 4 5 5 4 5 5 4 4 3 2 3 2 2 3 3 3 3 3 1 1 3 3 3 1 2 3 4 4 4 4 4 3 3 3
1 1 2 2 2 2 2 2 2 4 5 4 4 4 4 4 4 3 2 3 1 3 2 1 2 1 1 2 2 1 0 0 1 3 4 4 5 4 4 4 4 4 4
Wind_Direction
196 195 198 200 199 198 200 202 204 197 200 204 208 206 212 220 222 226 225 235 241 236 247 276 265 263 254 261 262 263 252 255 252 258 253 239 224 221 216 230 245 239 239
194 193 196 198 199 196 198 200 205 203 204 203 211 215 225 230 232 245 239 243 238 239 230 242 260 268 269 258 259 256 266 263 252 263 259 240 214 218 221 223 227 249 242
196 192 195 199 199 197 198 203 203 204 209 206 210 211 213 236 233 236 235 246 245 244 264 252 261 270 270 259 257 253 250 259 259 258 270 266 261 251 216 227 233 242 251
204 199 196 199 200 199 197 201 201 203 205 206 214 216 221 228 233 234 232 232 236 247 249 253 260 270 278 267 256 254 264 258 261 249 260 278 294 271 251 220 218 230 240
203 201 200 199 199 196 195 194 196 200 204 210 213 219 228 231 233 227 221 239 226 236 258 264 259 262 273 280 285 285 275 262 267 268 254 251 245 248 260 267 261 251 243
201 202 198 194 194 192 192 189 188 194 198 205 211 216 225 223 223 224 221 225 218 219 236 249 263 267 274 267 264 267 257 274 282 282 279 268 263 265 265 267 262 264 255
195 195 193 189 188 188 189 187 185 192 195 199 205 207 214 214 217 226 220 229 233 225 226 249 247 264 266 270 274 266 280 263 265 267 273 278 282 287 282 279 283 282 271
187 190 190 189 187 188 189 190 188 190 192 195 198 198 202 211 213 217 228 222 241 248 236 238 236 248 250 259 264 263 263 261 259 264 276 273 280 288 280 275 279 279 270
185 186 186 188 189 189 188 189 186 187 187 186 185 189 196 209 210 207 219 224 225 228 221 234 227 237 243 256 264 271 276 277 272 266 254 266 270 268 274 275 275 279 285
183 181 182 183 184 186 185 184 182 184 183 180 188 187 195 206 211 216 215 222 222 226 225 228 227 232 234 232 248 254 266 273 278 288 295 283 277 279 274 277 279 280 282
185 180 178 179 179 179 179 180 180 182 184 185 190 194 196 202 205 212 216 216 219 216 222 226 229 232 235 234 242 264 268 271 279 282 275 274 288 281 278 282 287 285 280
179 174 174 176 177 179 180 181 183 184 185 185 189 196 200 202 204 206 212 212 212 215 216 224 226 229 229 232 238 253 271 277 280 279 274 271 270 278 284 287 285 283 280
175 170 173 180 183 184 184 184 187 188 186 184 189 193 200 201 204 208 209 209 207 212 221 222 222 221 220 225 233 247 260 273 282 279 272 274 280 281 288 285 284 280 277
187 186 180 184 189 190 189 191 192 189 188 188 191 194 201 202 200 201 204 208 209 212 218 220 219 218 221 224 227 242 267 281 293 290 279 278 280 280 283 278 278 284 286
203 201 195 188 193 194 192 192 190 186 185 189 194 195 197 198 200 200 204 208 213 214 213 218 216 216 218 216 212 235 240 270 288 292 286 279 293 315 297 295 297 289 282
217 212 209 202 199 198 195 192 190 186 184 188 192 191 193 195 197 200 202 206 209 216 214 220 217 218 222 89 77 263 253 258 265 277 285 271 242 236 232 274 300 302 286
234 227 222 214 205 201 197 195 191 187 187 188 189 190 192 193 196 200 197 203 207 209 211 213 211 207 162 131 157 238 254 253 260 269 275 279 291 279 275 244 229 248 253
247 237 228 217 207 198 192 192 187 186 189 189 189 191 193 193 194 197 199 203 206 206 207 207 203 199 179 156 179 220 236 249 255 260 268 279 290 300 307 290 287 284 277
247 240 236 217 200 193 187 187 190 189 192 193 193 193 193 193 194 196 197 200 202 207 213 206 201 203 192 175 195 240 244 242 250 253 255 263 274 325 311 281 280 286 286
251 222 220 207 188 187 187 190 193 195 200 199 195 192 192 193 195 196 199 199 203 210 215 208 210 210 206 175 200 246 248 242 245 241 235 215 260 307 298 276 280 284 292
128 155 189 194 179 176 181 195 198 204 207 201 193 190 191 194 192 190 193 195 201 202 210 210 213 210 199 181 197 241 251 250 247 248 248 234 128 236 278 278 279 295 299
89 137 172 191 172 166 175 193 203 205 200 192 190 189 190 196 186 185 191 195 197 198 200 207 216 210 196 188 194 213 248 280 250 253 254 124 115 261 275 276 294 292 282
124 150 168 184 187 184 192 203 202 198 195 194 190 186 185 190 187 190 192 196 202 215 215 215 220 221 207 189 184 197 220 248 251 255 68 130 211 241 247 236 257 267 268
161 187 207 204 198 193 202 210 195 188 191 192 186 183 186 189 187 197 200 206 216 230 231 231 234 230 217 223 213 210 212 211 224 236 184 197 218 235 253 249 246 259 278
228 214 217 209 205 202 208 207 190 186 191 194 192 191 193 192 190 198 208 222 229 238 245 249 243 242 235 219 327 261 235 242 246 250 247 255 251 249 250 255 263 268 266
266 243 225 207 203 207 207 196 190 191 194 196 204 206 202 192 195 191 187 84 152 120 139 220 249 221 138 144 180 213 307 185 198 240 246 257 264 267 267 267 264 264 272
Height
1531 1534 1536 1538 1540 1541 1542 1544 1546 1547 1548 1550 1551 1553 1554 1554 1555 1555 1555 1555 1555 1555 1554 1555 1554 1554 1554 1553 1553 1553 1553 1553 1553 1553 1553 1552 1552 1552 1552 1552 1552 1552 1551
1529 1531 1533 1535 1537 1539 1540 1542 1544 1546 1547 1548 1549 1551 1552 1553 1553 1554 1553 1553 1553 1553 1554 1553 1553 1553 1552 1552 1552 1551 1552 1552 1551 1552 1551 1551 1552 1550 1550 1550 1550 1549 1549
1525 1528 1530 1532 1534 1536 1538 1540 1542 1543 1545 1546 1548 1549 1550 1550 1551 1552 1552 1551 1551 1551 1551 1551 1551 1551 1551 1551 1550 1549 1550 1550 1550 1550 1550 1550 1548 1549 1549 1548 1548 1547 1547
1522 1525 1527 1529 1532 1534 1536 1537 1539 1541 1542 1544 1545 1547 1547 1548 1549 1549 1550 1550 1549 1549 1549 1549 1549 1549 1550 1549 1549 1548 1548 1548 1548 1548 1547 1548 1547 1547 1546 1546 1546 1545 1545
1519 1522 1524 1526 1529 1531 1533 1535 1536 1538 1540 1541 1543 1544 1545 1546 1547 1547 1547 1548 1548 1547 1547 1547 1547 1547 1547 1547 1546 1546 1546 1546 1546 1547 1546 1546 1545 1545 1545 1544 1544 1544 1543
1516 1519 1521 1524 1526 1528 1530 1532 1533 1535 1537 1538 1540 1541 1542 1543 1544 1545 1545 1546 1546 1545 1545 1545 1545 1545 1545 1544 1544 1544 1544 1544 1544 1544 1544 1544 1544 1543 1543 1542 1542 1541 1541
1513 1516 1518 1521 1523 1525 1527 1529 1530 1532 1534 1535 1537 1538 1540 1541 1541 1542 1543 1543 1544 1544 1543 1543 1543 1543 1543 1543 1542 1542 1542 1542 1542 1542 1542 1542 1542 1541 1541 1540 1540 1539 1539
1510 1513 1515 1518 1520 1522 1524 1526 1528 1529 1531 1533 1534 1536 1537 1539 1540 1540 1541 1541 1542 1542 1541 1541 1541 1541 1541 1541 1541 1541 1540 1540 1539 1539 1539 1539 1539 1539 1539 1539 1538 1537 1536
1508 1510 1513 1515 1517 1519 1521 1523 1524 1526 1528 1530 1531 1533 1535 1536 1537 1538 1538 1540 1539 1540 1540 1539 1539 1539 1539 1539 1539 1539 1538 1538 1538 1538 1537 1536 1536 1536 1536 1536 1536 1536 1534
1506 1508 1510 1512 1514 1516 1518 1520 1522 1523 1525 1527 1529 1530 1532 1534 1535 1536 1536 1537 1537 1538 1538 1538 1538 1537 1537 1537 1537 1537 1536 1536 1535 1535 1534 1533 1534 1534 1534 1533 1533 1533 1532
1504 1506 1508 1510 1512 1514 1516 1517 1519 1521 1523 1524 1526 1528 1529 1531 1532 1533 1534 1535 1535 1535 1536 1536 1536 1536 1535 1535 1535 1535 1535 1534 1533 1533 1532 1531 1530 1531 1531 1530 1530 1530 1529
1502 1504 1506 1508 1509 1511 1513 1515 1516 1518 1520 1521 1523 1525 1527 1528 1530 1531 1532 1532 1533 1533 1533 1534 1534 1534 1534 1533 1533 1533 1533 1532 1531 1530 1529 1529 1529 1528 1527 1527 1527 1526 1525
1501 1503 1504 1506 1507 1509 1511 1512 1514 1515 1517 1519 1521 1523 1524 1526 1527 1528 1529 1529 1530 1530 1531 1531 1531 1531 1531 1531 1531 1531 1530 1529 1528 1527 1527 1526 1526 1525 1525 1524 1524 1523 1523
1500 1501 1502 1504 1505 1507 1508 1509 1511 1512 1514 1516 1518 1519 1521 1522 1524 1525 1526 1526 1527 1527 1528 1528 1529 1529 1529 1529 1529 1528 1527 1526 1526 1525 1524 1523 1523 1523 1522 1522 1521 1520 1520
1498 1499 1500 1501 1503 1504 1505 1506 1508 1509 1511 1513 1515 1516 1518 1520 1521 1522 1523 1523 1524 1525 1525 1525 1526 1526 1526 1526 1526 1525 1525 1524 1523 1522 1521 1521 1520 1520 1520 1520 1518 1518 1517
1496 1497 1498 1499 1500 1501 1502 1503 1504 1506 1507 1509 1512 1514 1515 1517 1518 1519 1520 1520 1521 1521 1522 1522 1523 1523 1524 1523 1522 1522 1522 1522 1521 1519 1518 1518 1518 1517 1516 1516 1515 1514 1514
1494 1495 1496 1496 1497 1498 1499 1500 1501 1503 1504 1506 1508 1510 1512 1513 1515 1516 1517 1517 1518 1518 1519 1519 1519 1520 1520 1520 1520 1519 1519 1519 1518 1517 1516 1516 1516 1515 1514 1513 1511 1511 1510
1491 1492 1493 1494 1494 1495 1496 1497 1498 1500 1501 1503 1504 1506 1508 1510 1511 1513 1513 1514 1515 1515 1515 1516 1516 1516 1516 1517 1517 1517 1516 1516 1515 1514 1513 1513 1511 1511 1510 1510 1509 1508 1507
1490 1490 1491 1492 1492 1493 1493 1494 1496 1497 1498 1500 1501 1503 1505 1506 1508 1509 1510 1511 1511 1512 1512 1513 1513 1513 1513 1513 1513 1513 1513 1513 1512 1511 1511 1510 1509 1508 1507 1507 1506 1505 1505
1487 1488 1488 1489 1490 1490 1491 1492 1493 1494 1495 1497 1498 1500 1501 1503 1504 1506 1507 1507 1508 1509 1509 1510 1510 1510 1510 1510 1510 1510 1510 1510 1509 1508 1508 1506 1506 1505 1504 1504 1503 1503 1502
1485 1486 1486 1487 1487 1488 1489 1490 1490 1491 1493 1494 1495 1497 1498 1499 1501 1502 1503 1504 1505 1505 1506 1506 1506 1506 1506 1506 1506 1506 1506 1506 1506 1506 1506 1504 1502 1502 1501 1501 1501 1500 1499
1483 1484 1484 1485 1485 1486 1486 1487 1488 1489 1491 1492 1493 1494 1495 1497 1498 1499 1500 1500 1501 1501 1501 1502 1502 1503 1502 1502 1502 1502 1502 1502 1502 1502 1502 1501 1500 1499 1499 1498 1497 1496 1495
1482 1482 1483 1483 1483 1484 1485 1485 1486 1487 1489 1490 1490 1491 1492 1494 1495 1496 1497 1497 1497 1498 1498 1498 1499 1499 1499 1499 1498 1498 1498 1498 1498 1498 1498 1497 1496 1496 1496 1495 1494 1493 1493
1481 1481 1481 1482 1482 1482 1483 1484 1484 1485 1486 1487 1488 1488 1489 1491 1492 1493 1494 1494 1495 1495 1495 1495 1495 1495 1496 1496 1495 1495 1495 1495 1495 1495 1494 1494 1493 1493 1492 1491 1491 1490 1490
1479 1480 1480 1480 1480 1481 1481 1482 1483 1483 1484 1485 1485 1486 1487 1488 1488 1489 1490 1491 1491 1491 1491 1492 1492 1492 1492 1492 1491 1492 1492 1492 1492 1491 1492 1492 1491 1491 1490 1489 1488 1488 1487
1478 1478 1478 1478 1479 1479 1479 1479 1480 1481 1481 1482 1483 1483 1484 1484 1485 1485 1486 1486 1487 1487 1487 1488 1488 1488 1488 1488 1488 1488 1488 1488 1488 1488 1488 1488 1488 1488 1487 1486 1486 1485 1484